This is the latest recevied weather packets stored in our database for station/object KC4LZN. If no packets are shown the sender has not sent any weather packets the latest 10 day(s).
| Time | Temp. | Humidity | Pressure | Rain* | Wind** | Luminosity | Snow |
|---|---|---|---|---|---|---|---|
| 1777300367 | 25.56° C | 78% | 1017.7 hPa | 0 mm | - | 642 W/m² | - |
| 1777300064 | 25.56° C | 78% | 1017.4 hPa | 0 mm | - | 195 W/m² | - |
| 1777299760 | 25.56° C | 78% | 1017.5 hPa | 0 mm | - | 656 W/m² | - |
| 1777299457 | 25° C | 78% | 1017.6 hPa | 0 mm | - | 641 W/m² | - |
| 1777299155 | 25° C | 80% | 1017.6 hPa | 0 mm | - | 626 W/m² | - |
| 1777298853 | 25° C | 79% | 1017.3 hPa | 0 mm | - | 594 W/m² | - |
| 1777298549 | 25° C | 79% | 1017.5 hPa | 0 mm | - | 596 W/m² | - |
| 1777298246 | 25° C | 80% | 1017.3 hPa | 0 mm | - | 526 W/m² | - |
| 1777297941 | 25° C | 80% | 1017.1 hPa | 0 mm | - | 514 W/m² | - |
| 1777297638 | 25° C | 80% | 1017.1 hPa | 0 mm | - | 438 W/m² | - |
| 1777297335 | 24.44° C | 82% | 1017 hPa | 0 mm | - | 291 W/m² | - |
| 1777297032 | 24.44° C | 82% | 1016.9 hPa | 0 mm | - | 398 W/m² | - |
| 1777296729 | 24.44° C | 83% | 1017 hPa | 0 mm | - | 430 W/m² | - |
| 1777296424 | 24.44° C | 83% | 1017 hPa | 0 mm | - | 410 W/m² | - |
| 1777296120 | 24.44° C | 83% | 1016.8 hPa | 0 mm | - | 389 W/m² | - |
| 1777295817 | 24.44° C | 83% | 1016.8 hPa | 0 mm | - | 369 W/m² | - |
| 1777295515 | 24.44° C | 82% | 1016.6 hPa | 0 mm | - | 353 W/m² | - |
| 1777295212 | 23.89° C | 82% | 1016.7 hPa | 0 mm | - | 334 W/m² | - |
| 1777294910 | 23.89° C | 84% | 1016.8 hPa | 0 mm | - | 313 W/m² | - |
| 1777294609 | 23.33° C | 85% | 1016.6 hPa | 0 mm | - | 289 W/m² | - |
| 1777294307 | 23.89° C | 84% | 1016.8 hPa | 0 mm | - | 270 W/m² | - |
| 1777294003 | 23.33° C | 86% | 1016.9 hPa | 0 mm | - | 262 W/m² | - |
| 1777293699 | 22.78° C | 87% | 1016.6 hPa | 0 mm | - | 234 W/m² | - |
| 1777293395 | 22.78° C | 88% | 1016.6 hPa | 0 mm | - | 204 W/m² | - |
| 1777293091 | 22.78° C | 88% | 1016.6 hPa | 0 mm | - | 161 W/m² | - |
* Rain latest hour (hover to see other rain measurements)
** Current wind speed in m/s (hover to see current wind gust speed)